Wind_Speed
28 27 27 27 27 27 27 27 27 27 28 28 28 28 27 27 27 26 26 25 24 23 23 22 21 21 21 21 21 21 21 21 20 20 19 18 17 16 15 14 14 13 12 11 10 9 9 9 10 11 12 13 14 15 15 16 16 17 18 19 20 21 22 23 23 24 24 25 26 27 28 29 30 30 31 32 33 34 35 35 36 36 37 38 39 40
27 26 26 26 26 26 26 26 26 27 27 27 27 27 27 26 26 26 25 25 24 24 23 22 22 21 21 21 21 21 20 20 20 20 19 19 18 16 15 14 13 12 12 11 11 11 11 11 11 12 13 14 15 16 17 18 19 19 20 22 23 24 24 25 25 26 26 27 27 28 29 30 31 32 33 34 34 35 36 37 37 38 38 39 40 40
26 26 26 26 26 26 26 26 26 26 26 26 27 27 27 26 26 25 25 25 24 24 23 23 23 22 22 21 21 21 21 20 20 20 20 19 19 18 16 15 14 13 12 12 11 12 12 12 13 14 15 16 17 18 19 20 21 22 23 24 25 26 26 27 27 28 28 29 30 30 31 32 33 33 34 35 36 37 38 38 39 40 40 41 41 42
25 25 25 26 26 26 26 26 26 26 26 26 26 26 26 26 26 26 25 25 24 24 24 23 23 23 22 22 22 21 21 21 20 20 20 20 20 19 18 17 16 14 13 13 13 13 13 14 14 15 16 17 18 19 20 21 23 24 25 26 27 28 28 29 29 30 30 31 31 32 33 33 34 35 36 37 37 38 39 40 41 41 42 42 43 44
25 25 25 25 25 25 25 25 26 26 26 26 26 26 26 26 26 26 25 25 25 24 24 23 23 23 22 22 21 21 21 20 20 20 19 19 19 19 19 18 18 17 16 15 14 14 14 15 15 16 17 18 19 20 21 22 23 24 26 26 27 28 28 29 30 30 31 31 32 33 33 34 35 36 36 37 38 39 40 41 41 42 43 43 44 45
25 25 25 25 25 25 25 25 25 25 25 26 26 26 26 26 26 26 26 25 25 24 24 23 23 23 22 22 21 21 20 20 20 19 19 19 19 19 19 19 18 18 18 17 16 16 16 16 16 17 17 18 19 20 21 22 23 24 24 25 26 27 28 28 29 29 30 31 31 32 33 34 35 35 36 37 38 39 40 41 42 42 43 44 45 45
25 25 25 25 25 25 25 25 25 25 25 25 25 26 26 26 26 26 26 26 25 25 24 24 23 23 22 22 22 21 21 21 20 20 20 20 20 19 19 19 19 19 19 19 19 18 18 18 18 18 19 19 20 20 21 21 22 23 24 24 25 26 27 27 28 29 29 30 31 31 32 33 34 35 35 36 37 38 39 40 41 42 43 44 44 45
25 25 25 25 25 25 25 25 25 25 25 26 26 26 26 26 26 26 26 26 26 26 25 25 24 24 23 23 23 23 22 22 22 22 22 22 21 21 21 21 21 21 21 21 21 21 21 21 21 21 21 21 22 22 22 23 23 24 24 25 26 26 27 28 28 29 30 30 31 32 32 33 34 34 35 36 37 38 39 40 41 42 43 43 44 45
25 25 25 25 26 26 26 26 26 26 26 26 26 26 26 26 26 27 27 27 27 27 26 26 26 25 25 25 24 24 24 24 24 24 24 24 24 23 23 23 23 23 23 23 23 23 23 23 23 24 24 24 24 24 24 25 25 26 26 27 28 28 29 30 30 31 32 32 33 33 34 35 35 36 36 37 38 38 39 40 41 42 43 43 44 45
26 26 26 26 26 26 26 26 26 26 26 26 26 26 26 27 27 27 27 27 27 27 27 27 27 27 27 26 26 26 26 26 26 26 26 26 26 26 26 26 26 25 25 25 26 26 26 26 26 26 27 27 27 27 27 28 28 28 29 29 30 31 31 32 33 33 34 35 35 36 37 37 38 38 39 40 40 41 42 42 43 43 44 45 46 46
26 26 26 26 26 26 26 26 27 27 27 27 27 27 27 27 27 27 27 27 27 28 28 28 28 28 28 28 28 28 28 28 28 27 27 27 27 27 27 27 27 28 28 28 28 28 28 29 29 29 29 30 30 30 30 30 31 31 32 32 33 33 34 35 35 36 37 37 38 39 39 40 41 41 42 43 43 44 45 46 46 47 47 48 48 49
26 26 26 26 26 26 27 27 27 27 27 27 27 27 27 27 28 28 28 28 28 28 28 28 28 29 29 29 29 29 29 29 29 29 29 29 29 29 29 29 29 29 29 29 30 30 30 31 31 31 32 32 32 32 32 32 33 33 34 34 35 35 36 37 37 38 39 39 40 41 41 42 43 44 44 45 46 47 48 49 49 50 51 51 52 52
26 26 26 26 27 27 27 27 27 28 28 28 28 28 28 28 28 28 28 28 28 28 28 29 29 29 29 30 30 30 30 30 30 30 31 31 31 31 31 31 31 31 31 31 31 31 32 32 32 33 33 33 34 34 34 34 34 35 35 36 37 37 38 38 39 40 40 41 42 42 43 44 45 45 46 47 48 49 50 51 52 52 53 54 54 55
26 26 27 27 27 27 28 28 28 28 28 28 28 28 28 28 28 28 28 28 28 29 29 29 29 30 30 30 31 31 31 31 31 31 31 31 32 32 32 32 32 32 32 32 32 32 33 33 34 34 35 35 35 35 36 36 36 36 37 38 38 39 39 40 40 41 42 42 43 44 44 45 46 47 48 49 50 51 52 52 53 54 55 56 56 57
27 27 27 28 28 28 28 29 29 29 29 29 29 29 29 29 29 29 29 29 29 29 30 30 30 30 31 31 31 31 32 32 32 32 32 32 32 32 33 33 33 33 33 33 33 34 34 34 35 35 36 36 37 37 37 37 38 38 39 39 40 40 41 41 42 42 43 44 44 45 46 47 47 48 49 50 51 52 53 54 55 55 56 57 57 58
27 28 28 28 29 29 29 29 29 30 30 30 30 30 29 29 29 29 29 30 30 30 30 31 31 31 31 32 32 32 32 33 33 33 33 33 33 33 33 33 34 34 34 34 34 34 35 35 36 36 37 37 38 38 38 39 39 40 40 41 41 42 42 43 43 44 44 45 46 46 47 48 49 50 51 52 52 53 54 55 56 56 57 57 58 58
28 29 29 29 29 30 30 30 30 30 30 30 30 30 30 30 30 30 30 30 31 31 31 32 32 32 32 33 33 33 33 33 34 34 34 34 35 35 34 35 35 35 35 35 35 35 36 36 37 37 38 38 39 39 40 40 40 41 41 42 42 43 43 44 44 45 46 46 47 48 49 50 51 51 52 53 54 54 55 56 56 57 57 58 58 58
29 29 30 30 30 30 31 31 31 31 31 31 31 31 31 31 31 31 31 31 32 32 32 33 33 33 33 33 34 34 34 34 35 35 35 36 36 36 36 36 36 36 36 36 37 37 37 38 38 39 39 39 40 40 41 41 42 42 42 43 43 44 44 45 46 46 47 48 49 50 50 51 52 53 54 54 55 55 56 56 57 57 57 57 57 58
30 30 30 31 31 31 31 31 31 31 31 31 31 31 31 31 32 32 32 32 33 33 33 34 34 34 34 34 34 35 35 35 35 36 36 37 37 37 37 37 37 38 38 38 38 38 39 39 39 40 40 41 41 42 42 42 43 43 44 44 44 45 46 46 47 48 49 50 50 51 52 53 54 54 55 55 56 56 56 56 57 57 57 57 57 56
30 30 31 31 31 31 32 32 32 32 32 32 32 32 32 32 32 32 33 33 33 34 34 34 34 35 35 35 35 35 35 36 36 36 37 38 38 39 39 39 39 39 39 39 39 40 40 40 41 41 41 42 42 43 43 44 44 44 45 45 46 46 47 48 49 49 50 51 52 53 54 54 55 55 56 56 56 56 56 56 56 56 56 56 55 55
30 31 31 31 32 32 32 32 32 32 32 32 32 32 32 33 33 33 33 34 34 34 35 35 35 35 35 35 35 35 36 36 36 37 38 39 39 40 40 40 40 40 40 41 41 41 41 41 42 42 43 43 43 44 44 44 45 45 46 46 47 48 48 49 50 51 52 52 53 54 55 55 56 56 56 57 57 57 56 56 56 55 55 55 55 54
31 31 31 32 32 32 32 32 33 33 33 33 33 33 33 33 33 34 34 34 35 35 35 35 35 35 36 36 36 36 36 37 37 38 39 39 40 41 41 41 41 42 42 42 42 42 42 42 43 43 43 44 44 45 45 45 46 46 47 47 48 48 49 50 51 52 53 53 54 55 55 56 56 57 57 57 57 56 56 55 55 55 54 54 54 54
31 31 32 32 32 32 33 33 33 33 33 33 33 33 34 34 34 34 35 35 35 35 35 36 36 36 36 36 37 37 37 38 38 39 40 40 41 41 42 42 42 43 43 43 43 43 43 43 44 44 44 45 45 45 46 46 46 47 47 48 48 49 50 51 52 52 53 54 55 55 56 56 56 57 57 56 56 56 55 55 54 54 54 54 54 54
32 32 32 32 33 33 33 33 33 33 34 34 34 34 34 35 35 35 35 35 36 36 36 36 37 37 37 38 38 38 39 39 39 40 40 41 41 42 42 43 43 43 44 44 44 44 44 44 45 45 45 46 46 46 46 46 47 47 48 48 49 50 50 51 52 53 54 54 55 56 56 56 56 56 56 56 55 55 54 54 54 53 53 53 53 54
32 33 33 33 33 33 34 34 34 34 34 34 34 35 35 35 36 36 36 36 36 37 37 37 37 38 38 39 39 40 40 40 40 41 41 42 42 42 43 43 44 44 44 44 45 45 45 45 45 46 46 46 47 47 47 47 47 48 48 49 49 50 51 52 52 53 54 54 55 55 55 56 55 55 55 54 54 53 53 53 53 53 53 53 53 53
33 33 33 34 34 34 34 34 34 34 35 35 35 35 36 36 36 37 37 37 37 37 38 38 38 39 39 40 41 41 41 41 41 42 42 42 43 43 43 44 44 44 45 45 45 45 46 46 46 46 47 47 47 47 47 48 48 48 49 49 50 51 51 52 53 53 54 54 55 55 55 55 55 54 54 53 53 52 52 52 52 52 52 52 53 53
33 34 34 34 34 35 35 35 35 35 35 35 36 36 36 37 37 37 37 38 38 38 38 38 39 40 40 41 41 42 42 42 42 42 42 43 43 43 44 44 45 45 45 46 46 46 46 46 46 47 47 47 48 48 48 48 49 49 49 50 51 51 52 52 53 53 54 54 55 55 54 54 54 53 53 52 52 51 51 51 51 51 51 52 52 52
34 34 34 35 35 35 36 36 36 36 36 36 36 36 37 37 37 38 38 38 39 39 39 39 40 40 41 41 42 42 42 42 42 42 42 43 43 43 44 44 45 45 46 46 47 47 47 47 47 47 48 48 48 48 49 49 49 50 50 51 51 52 52 53 53 53 54 54 54 54 54 53 53 52 52 51 51 51 50 50 50 50 51 51 52 52
34 34 35 35 36 36 36 37 37 37 37 37 37 37 37 38 38 38 39 39 39 39 39 40 40 41 41 41 42 42 42 42 42 42 42 43 43 43 44 45 45 46 46 47 47 47 47 47 47 48 48 48 49 49 49 50 50 50 51 51 51 52 52 53 53 53 54 54 54 54 53 53 52 52 51 51 50 50 50 50 50 50 50 51 51 51
34 34 35 36 36 37 37 37 37 38 38 38 38 38 38 39 39 39 39 40 40 40 40 40 41 41 41 41 42 42 42 42 42 42 42 43 43 44 44 45 45 46 46 47 47 48 48 48 47 48 48 49 49 49 50 50 50 51 51 52 52 52 52 53 53 53 53 53 53 53 53 52 51 51 50 50 49 49 49 49 49 49 50 50 51 51
34 35 35 36 37 37 38 38 38 39 39 39 39 39 39 39 40 40 40 40 41 41 41 41 41 41 41 41 41 41 41 42 42 42 42 43 43 44 44 45 45 46 46 47 47 48 48 48 48 48 48 48 49 49 50 50 51 51 52 52 52 52 52 53 53 53 53 53 53 53 52 51 51 50 49 49 49 48 48 49 49 49 49 50 50 51
35 35 36 37 37 38 38 39 39 39 40 40 40 40 40 40 40 41 41 41 41 41 41 42 42 42 42 42 42 41 42 42 42 42 43 43 44 44 45 45 45 46 46 46 47 47 48 48 49 48 48 48 49 49 50 50 51 51 52 52 52 52 52 53 53 53 53 53 53 52 51 51 50 49 49 48 48 48 48 48 48 49 49 50 50 50
36 36 37 38 38 39 39 40 40 40 40 40 40 40 41 41 41 41 41 41 42 42 42 42 42 42 42 42 42 42 42 42 43 43 44 44 44 45 45 45 46 46 46 47 47 47 48 48 49 49 49 49 49 49 50 50 51 51 52 52 52 52 52 53 53 53 53 53 52 52 51 50 49 48 48 48 47 47 47 47 48 48 49 49 49 49
37 38 38 39 39 40 40 40 40 41 41 41 41 41 41 41 41 42 42 42 42 42 42 43 43 43 43 43 43 43 43 43 44 44 44 45 45 45 46 46 46 46 47 47 47 47 48 48 49 50 50 50 50 50 50 51 51 51 52 52 52 52 52 53 53 53 53 52 52 51 50 49 48 48 47 47 47 47 47 47 47 48 48 48 48 48
38 39 39 40 40 41 41 41 41 41 41 41 41 41 42 42 42 42 42 43 43 43 43 43 43 43 43 44 44 44 44 45 45 45 45 46 46 46 47 47 47 47 47 47 47 47 48 48 49 50 50 51 51 51 51 51 51 52 52 52 52 52 53 53 53 53 53 52 51 50 49 49 48 47 47 47 46 46 46 46 47 47 47 47 47 47
40 40 40 41 41 41 41 41 41 41 42 42 42 42 42 42 42 43 43 43 43 43 43 44 44 44 44 44 45 45 46 46 46 46 46 47 47 47 47 48 48 48 48 48 48 48 48 49 49 50 50 51 52 52 52 52 52 52 52 52 52 52 53 53 53 53 52 51 51 50 49 48 48 47 46 46 46 46 46 46 46 46 46 46 47 46
41 41 41 41 42 42 42 42 42 42 42 42 42 42 42 42 43 43 43 43 44 44 44 44 44 45 45 45 46 46 47 47 47 48 48 48 48 48 48 49 49 48 48 48 48 48 49 49 50 50 51 51 52 53 53 53 53 53 52 52 52 52 53 53 53 52 52 51 50 49 48 48 47 46 46 46 45 45 45 45 45 46 46 46 46 46
42 42 42 42 42 42 42 42 42 42 42 42 42 42 43 43 43 43 44 44 44 44 44 45 45 46 46 46 47 47 48 48 49 49 49 49 49 49 50 50 50 49 49 49 49 49 49 49 50 51 51 52 53 53 53 54 54 53 53 53 53 53 53 53 53 52 51 50 49 48 48 47 46 46 45 45 45 44 44 45 45 45 45 45 45 45
43 43 43 43 43 43 43 43 43 43 43 43 43 43 43 43 43 44 44 44 44 45 45 45 46 46 47 47 48 48 49 49 50 50 50 50 50 51 51 51 51 50 50 50 49 49 50 50 50 51 52 53 53 54 54 54 54 54 54 54 54 54 53 53 52 51 50 49 48 47 47 46 46 45 45 44 44 44 44 44 44 44 44 45 45 45
43 43 43 43 44 44 44 44 44 44 44 43 43 43 43 44 44 44 44 45 45 45 46 46 47 47 48 48 49 49 49 50 50 51 51 51 51 51 51 51 51 51 51 50 50 50 50 50 51 52 52 53 53 54 54 54 54 54 54 54 54 54 54 53 52 51 50 48 47 47 46 46 45 45 44 44 44 44 43 44 44 44 44 44 44 44
44 44 44 44 44 44 45 45 45 45 44 44 44 44 44 44 44 45 45 45 46 46 47 47 48 48 49 49 49 50 50 51 51 51 51 52 52 52 52 52 52 52 51 51 51 51 51 51 52 52 52 53 53 54 54 54 54 54 54 55 55 55 55 54 52 51 49 48 46 46 45 45 45 44 44 44 43 43 43 43 43 43 43 43 43 43
44 44 44 44 44 45 45 45 45 45 45 45 45 45 45 45 45 46 46 46 47 47 48 48 49 49 50 50 50 50 51 51 51 51 52 52 52 52 53 52 52 52 52 52 51 51 51 52 52 52 53 53 53 53 54 54 54 54 54 55 55 55 55 54 52 50 49 47 46 45 45 44 44 44 43 43 43 43 43 43 43 43 43 43 43 43
44 44 44 44 45 45 45 45 45 45 45 45 45 46 46 46 46 47 47 47 48 48 49 49 50 50 51 51 51 51 51 51 51 52 52 52 52 53 53 53 53 52 52 52 52 52 52 52 52 53 53 53 53 53 53 54 54 55 55 55 55 54 54 53 52 50 48 47 46 44 44 43 43 43 43 43 42 42 42 42 42 42 42 42 43 43
43 43 44 44 44 45 45 45 45 45 46 46 46 47 47 47 48 48 48 49 49 50 50 51 51 51 52 52 52 52 52 52 52 52 52 52 53 53 53 53 53 53 52 52 52 52 53 53 53 53 53 53 53 53 53 54 54 55 55 55 54 54 52 52 51 49 48 46 45 44 43 43 42 42 42 42 42 42 41 41 41 41 42 42 42 43
43 43 44 44 44 45 45 45 45 45 46 46 47 47 48 48 49 49 50 50 51 51 51 52 52 52 53 53 53 53 53 53 52 52 52 53 53 53 54 54 53 53 53 52 52 52 53 53 53 53 53 53 53 53 53 53 54 55 55 54 54 53 52 51 49 48 47 46 44 44 43 42 42 42 42 41 41 41 40 40 41 41 41 42 42 42
43 43 44 44 44 45 45 45 45 46 46 46 47 48 48 49 50 50 51 51 52 52 52 53 53 53 54 54 54 54 54 54 53 53 53 53 54 54 54 54 53 53 53 53 53 53 53 53 53 53 53 53 53 53 53 53 54 54 54 54 53 52 51 50 49 47 46 45 44 43 42 42 42 41 41 40 40 40 40 40 40 40 41 41 41 42
43 44 44 45 45 45 45 45 45 46 46 47 47 48 48 49 50 51 51 52 52 53 53 54 54 55 55 55 55 55 55 55 55 54 54 54 54 54 54 54 53 53 53 53 53 53 53 53 53 53 53 53 53 53 53 54 54 54 54 53 52 51 50 49 48 46 45 44 43 43 42 41 41 41 40 39 39 39 39 39 39 39 40 40 41 41
43 44 45 45 45 45 45 46 46 46 47 47 48 48 49 49 50 51 51 52 53 53 54 55 56 56 57 57 57 57 56 56 56 56 56 55 55 55 54 54 53 53 53 53 53 53 54 54 53 53 53 53 53 53 54 54 54 54 53 52 51 50 49 48 47 46 45 43 43 42 41 41 40 40 39 38 38 38 38 38 38 39 39 39 40 40
44 45 45 46 46 46 46 46 46 47 47 48 48 49 49 50 50 51 52 52 53 54 55 56 57 58 58 58 58 58 57 57 57 57 56 56 56 55 55 54 53 53 53 53 53 53 54 54 53 53 52 53 53 54 54 54 54 53 52 52 51 49 48 47 46 45 44 43 42 41 41 40 40 39 38 38 37 37 37 37 38 38 38 38 39 39
45 46 46 46 47 47 47 47 47 48 48 49 49 50 51 51 51 52 53 53 54 55 55 56 57 58 58 59 58 58 58 57 57 57 57 57 56 56 55 55 54 53 53 53 53 53 53 53 53 53 53 53 53 53 54 54 53 53 52 51 50 49 47 46 45 44 43 42 41 40 40 39 39 38 38 37 36 36 36 36 37 37 37 38 38 38
46 46 47 47 47 48 48 48 49 49 50 51 51 52 52 53 53 53 54 54 55 55 56 56 57 57 57 58 58 58 57 57 58 58 58 57 57 56 55 55 54 53 53 53 53 53 52 52 52 53 53 53 53 53 53 53 53 52 51 50 49 48 46 45 44 43 41 40 40 39 39 39 39 38 38 37 36 35 35 35 36 36 37 37 37 37
Wind_Direction
303 304 305 306 307 309 310 311 313 314 315 317 318 320 322 324 326 329 331 334 335 336 336 336 335 333 333 332 332 332 332 332 332 332 333 335 337 338 340 341 341 341 340 338 332 323 312 301 293 286 279 272 264 259 256 256 256 258 259 261 263 263 264 263 263 261 260 258 257 256 256 256 256 257 257 258 259 259 259 259 259 259 258 258 258 258
302 303 304 306 307 308 309 311 312 313 314 315 317 318 320 322 324 326 328 331 333 335 336 337 337 336 335 334 334 333 332 331 331 331 332 332 332 332 332 331 330 328 326 322 317 311 304 296 289 282 276 270 265 261 258 257 257 259 260 261 263 264 264 264 263 262 261 260 259 258 258 258 258 259 259 259 260 260 260 260 260 260 260 259 259 259
302 303 304 305 306 308 309 310 311 312 313 314 315 317 318 320 322 324 326 328 330 332 334 335 336 336 336 336 336 335 334 333 333 332 332 331 331 329 328 326 324 320 316 311 305 300 293 288 282 278 273 270 267 265 263 262 262 262 263 264 265 265 266 266 265 264 264 263 262 261 261 260 260 261 261 261 261 262 262 262 262 261 261 261 261 260
301 302 304 305 306 307 309 310 311 311 312 313 314 315 317 319 321 322 324 326 327 329 331 332 333 334 335 335 335 335 335 334 334 333 332 330 329 328 327 325 323 319 314 308 302 296 290 285 281 277 274 271 270 268 267 266 266 266 266 267 267 268 268 267 267 266 266 265 264 264 263 263 263 263 263 263 263 263 263 263 263 262 262 262 262 262
301 303 304 305 306 307 308 309 310 310 311 312 313 314 316 318 319 321 322 324 325 326 327 328 329 330 331 331 332 332 332 331 331 330 328 327 326 325 324 323 322 320 316 311 306 300 294 289 284 280 277 274 272 270 269 268 268 268 268 269 269 269 269 269 268 268 267 266 266 265 265 265 265 265 265 265 265 264 264 264 264 264 264 264 264 264
302 303 304 305 306 307 308 308 309 309 310 311 312 313 315 316 317 319 320 321 322 323 324 324 325 326 326 326 326 326 326 325 324 323 322 321 321 320 319 318 318 316 314 312 308 305 300 295 291 287 283 280 277 276 274 273 272 272 272 271 271 271 271 270 270 269 268 267 267 267 266 266 266 266 266 266 266 266 265 265 265 265 265 265 265 265
302 303 304 305 306 306 307 307 308 308 309 310 311 312 313 314 315 316 317 318 319 320 320 320 321 321 321 321 321 320 320 319 318 317 316 316 315 314 314 313 312 311 310 309 307 305 302 299 296 293 291 288 286 284 282 280 279 278 277 276 275 274 274 273 272 271 270 270 269 268 268 267 267 267 266 266 266 266 266 266 266 266 266 266 266 266
302 303 304 304 305 306 306 306 307 307 308 309 310 310 311 312 312 313 314 315 315 316 316 317 317 317 318 318 317 317 316 316 315 314 314 313 312 311 311 310 309 308 306 306 304 303 301 299 297 295 294 292 290 288 286 285 283 282 281 280 279 278 277 276 275 275 274 274 273 272 272 271 271 270 269 268 268 267 267 267 266 266 266 266 266 266
302 303 304 304 304 305 305 306 306 307 307 308 308 309 309 310 310 310 311 312 312 313 313 314 315 315 315 315 315 315 315 315 314 314 313 313 312 311 310 309 308 307 306 305 303 302 300 299 297 295 294 292 291 289 288 287 285 284 283 282 282 281 280 280 279 279 279 278 278 278 277 277 276 276 275 274 273 272 271 271 270 269 269 268 268 267
302 302 303 303 304 304 305 305 306 306 307 307 307 308 308 308 308 308 308 309 309 310 311 312 313 314 314 314 314 314 314 314 314 314 313 313 312 312 311 310 310 308 307 306 305 303 302 300 298 297 295 294 293 291 290 289 288 287 286 285 285 284 284 283 283 283 283 282 282 282 282 282 281 281 280 280 279 278 277 276 275 274 273 272 271 270
301 301 302 302 303 303 304 304 305 305 306 306 306 306 306 306 306 306 307 307 308 308 309 310 311 312 313 313 314 314 314 314 314 314 313 313 313 312 312 311 311 310 309 308 306 305 304 302 301 299 298 296 295 294 293 292 291 290 289 288 288 287 286 286 286 286 285 285 285 285 285 285 285 284 284 283 283 282 281 281 280 279 278 277 276 274
299 300 300 301 301 302 303 303 304 305 305 305 305 305 305 305 305 305 305 306 306 307 308 308 309 310 311 311 312 312 312 313 313 313 313 313 313 312 312 312 311 310 309 308 307 306 304 303 302 300 299 298 297 296 295 293 292 292 291 290 289 288 288 288 287 287 287 287 287 287 287 286 286 286 285 285 284 284 283 283 282 281 280 279 278 277
298 298 299 300 301 301 302 303 303 303 304 304 303 303 303 303 303 303 304 305 305 306 306 307 307 308 308 309 309 310 310 311 311 311 311 312 312 312 312 312 311 310 309 308 307 306 304 303 302 301 299 298 297 296 295 294 293 292 291 290 290 289 289 289 288 288 288 288 288 287 287 287 287 286 286 285 285 284 283 283 282 281 281 280 279 278
297 298 298 299 300 301 301 302 302 302 302 302 302 302 302 302 302 302 303 303 304 304 305 305 306 306 307 307 307 308 308 308 308 309 309 309 310 310 310 310 310 309 309 308 307 305 304 302 301 300 299 298 297 296 295 294 293 292 291 290 290 290 289 289 289 289 288 288 288 288 287 287 287 286 286 285 285 284 284 283 282 282 281 280 279 278
297 298 298 299 300 300 301 301 301 301 301 301 301 301 301 301 301 301 302 302 303 303 303 304 304 304 305 305 305 306 306 306 306 306 306 306 307 307 308 308 308 307 307 306 305 304 303 301 300 299 298 297 297 296 295 294 293 292 291 291 290 290 290 290 289 289 289 289 289 289 288 288 287 287 287 286 286 285 284 284 283 282 281 281 280 279
297 298 299 299 300 300 300 301 301 301 301 301 300 300 300 300 300 300 301 301 302 302 303 303 303 303 303 303 303 303 304 304 304 304 304 304 304 304 305 305 305 305 304 304 303 302 301 300 299 298 297 296 296 295 294 293 292 292 291 291 291 290 290 290 290 290 290 290 290 290 290 289 289 288 288 288 287 286 286 285 284 283 282 281 280 279
298 299 299 299 300 300 300 300 300 300 300 300 300 300 299 300 300 300 300 301 301 302 302 302 303 303 302 302 302 302 302 302 302 302 302 302 302 303 303 303 303 303 303 303 302 301 300 299 298 297 297 296 295 294 293 293 292 292 291 291 291 291 291 291 291 291 291 291 291 291 291 291 290 290 290 289 288 288 287 286 285 284 283 282 281 280
299 299 299 299 299 299 299 300 299 300 299 299 299 299 299 299 299 300 300 301 301 302 302 302 302 302 302 302 301 301 301 301 301 301 301 301 301 301 302 302 302 302 302 302 301 301 300 299 299 298 297 296 295 295 294 293 293 292 292 292 292 292 292 292 292 292 292 292 292 292 292 292 292 291 291 290 289 289 288 287 286 285 284 283 282 280
299 299 299 299 299 299 299 299 299 299 299 299 299 299 299 299 299 300 300 301 301 302 302 302 302 302 302 302 301 301 301 300 300 300 300 300 300 300 301 301 301 301 301 301 301 300 300 299 299 298 298 297 296 295 294 294 293 293 293 292 292 292 293 293 293 293 293 293 293 293 293 293 293 292 292 291 290 289 288 287 286 285 284 283 282 281
299 299 299 299 299 299 299 299 299 299 299 299 299 299 299 299 299 300 300 301 301 302 302 302 302 302 302 301 301 301 301 300 300 300 300 300 300 300 300 300 300 299 299 299 299 299 299 299 298 298 297 296 296 295 295 294 294 294 293 293 293 293 293 294 294 294 294 294 294 294 294 294 293 293 292 291 290 290 289 288 287 285 284 283 282 281
298 298 298 298 298 298 298 299 299 299 299 299 299 299 299 299 300 300 301 301 301 302 302 302 302 302 301 301 301 301 301 301 301 300 300 300 299 299 299 299 299 299 298 298 298 298 298 298 297 297 296 296 295 295 294 294 294 294 294 294 294 294 294 294 295 295 295 295 295 295 295 294 294 293 292 292 291 290 289 288 287 286 285 284 283 282
298 298 298 298 298 298 298 299 299 299 299 299 299 299 299 299 300 300 300 301 301 301 301 301 301 301 301 301 301 301 301 301 301 301 300 300 299 299 299 299 298 298 298 297 297 297 297 297 296 296 295 295 294 294 294 294 294 294 294 294 294 294 295 295 295 296 296 296 296 295 295 295 294 293 292 292 291 289 288 287 286 286 285 284 283 282
297 297 298 298 298 298 298 299 299 299 299 299 299 299 299 300 300 300 301 301 301 301 301 301 301 301 301 301 301 301 301 301 301 301 300 300 299 299 299 298 297 297 297 297 297 296 296 296 295 295 295 294 294 294 294 294 293 294 294 294 294 295 295 296 296 296 296 296 296 296 295 295 294 293 292 291 290 289 288 287 286 286 285 284 284 283
298 298 298 298 298 299 299 299 299 299 299 299 299 299 299 300 300 300 301 301 301 301 301 301 301 301 301 301 301 301 302 302 301 301 300 299 299 298 298 298 297 297 296 296 296 296 296 295 295 295 294 294 294 293 293 293 293 294 294 294 295 295 296 296 297 297 297 297 297 296 296 295 294 293 292 291 290 289 288 287 286 286 285 285 284 284
298 298 299 299 299 299 299 299 299 300 300 300 300 300 300 300 300 300 300 301 301 301 301 301 301 301 301 301 302 302 302 302 302 301 300 300 299 299 298 298 297 297 297 296 296 296 295 295 295 294 294 294 293 293 293 293 294 294 294 295 295 296 296 297 297 298 298 298 297 297 296 295 294 293 291 290 289 288 287 287 286 286 286 285 285 285
299 299 300 300 300 300 300 300 300 300 300 300 300 300 300 300 300 300 300 300 300 300 300 300 301 301 301 302 302 302 303 303 302 302 301 301 300 299 299 298 298 297 297 297 296 296 295 295 295 294 294 294 293 293 293 293 294 294 294 295 296 296 297 298 298 299 299 298 298 297 296 295 294 292 291 290 289 288 288 287 287 287 286 286 286 285
300 300 300 300 300 300 300 300 300 300 300 300 299 300 300 299 299 299 299 299 299 299 299 300 300 301 301 302 302 303 303 303 303 303 302 302 301 300 300 300 299 298 298 297 297 296 296 295 295 294 294 294 293 293 293 294 294 294 295 295 296 297 298 298 299 299 299 299 298 297 296 295 293 292 291 290 289 289 288 288 288 288 287 287 287 286
300 300 300 300 300 300 301 300 300 300 300 300 299 299 299 299 298 298 298 298 298 298 299 299 300 301 301 302 302 303 303 303 303 303 303 302 302 301 301 300 300 299 299 298 297 296 296 295 295 295 294 294 294 293 294 294 294 294 295 296 296 297 298 299 299 299 299 299 298 297 296 294 293 292 291 290 289 289 289 289 289 289 288 288 287 287
299 300 300 300 301 301 301 301 300 300 300 300 299 299 298 298 298 297 297 297 297 298 298 299 299 300 301 302 302 302 303 303 303 303 303 303 302 302 302 301 300 300 299 299 298 297 296 296 295 295 294 294 294 294 294 294 294 295 295 296 297 297 298 299 300 300 299 298 297 296 295 294 292 291 291 290 290 290 290 290 290 289 289 289 288 287
299 300 300 300 301 301 301 301 300 300 300 300 299 299 298 298 297 297 297 297 297 297 298 298 299 300 300 301 301 302 302 303 303 303 303 303 303 303 303 302 301 301 300 300 299 298 297 296 296 295 294 294 294 294 294 294 294 295 295 296 297 298 298 299 300 299 299 298 297 295 294 293 292 291 290 290 290 290 290 290 290 290 290 289 288 287
299 300 300 300 300 301 301 300 300 300 300 300 299 299 298 298 297 297 296 296 296 297 297 298 299 299 300 300 301 301 302 302 303 303 303 304 304 304 304 303 303 302 301 301 300 299 298 297 296 295 295 294 294 294 294 294 294 295 295 296 297 298 299 299 299 299 298 297 296 294 293 292 291 290 290 290 290 290 290 291 291 291 290 290 289 287
300 300 300 301 301 301 301 301 300 300 300 299 299 299 298 298 297 297 296 296 296 296 297 298 298 299 299 300 300 301 301 302 303 303 303 304 305 305 305 305 304 304 303 302 301 300 299 298 297 296 296 295 294 294 294 294 294 294 295 296 297 298 299 299 299 299 298 297 295 294 292 291 290 290 289 289 290 290 291 291 291 291 291 290 289 287
300 301 301 301 301 301 301 300 300 300 300 299 299 299 298 298 297 296 296 296 296 296 296 297 298 298 299 299 299 300 301 302 302 303 304 305 305 306 306 306 305 305 304 304 302 301 300 299 299 298 297 296 295 295 294 294 294 294 295 296 297 298 299 299 299 299 297 296 294 293 291 290 289 289 289 289 289 290 291 291 292 291 291 290 289 287
300 301 301 301 301 301 301 300 300 300 299 299 299 298 298 297 297 296 296 295 295 295 296 296 297 298 298 299 299 300 300 301 302 303 304 305 306 306 307 307 307 306 306 305 304 303 302 300 300 299 298 297 296 295 295 294 294 294 295 296 297 298 299 299 299 298 297 295 293 292 290 289 289 288 288 288 289 290 291 291 292 292 291 290 289 287
301 301 301 301 301 301 301 300 300 300 300 299 299 298 298 297 296 296 295 295 295 295 295 296 297 297 298 299 299 300 301 301 302 303 304 305 306 307 307 308 308 308 307 306 305 304 303 302 301 300 299 298 297 296 295 295 294 295 295 296 297 298 299 299 299 298 296 294 292 291 289 288 288 287 287 288 289 290 290 291 291 291 291 290 288 286
301 301 301 301 301 301 301 301 300 300 300 299 299 298 298 297 296 296 295 295 295 295 295 296 296 297 297 298 299 300 301 301 302 303 304 305 306 307 308 308 308 308 308 307 306 305 304 303 302 301 300 299 298 297 296 295 295 295 295 296 297 298 299 299 299 298 296 294 292 290 288 287 287 287 287 287 288 289 290 291 291 291 291 289 288 286
300 300 301 301 301 301 301 301 300 300 300 299 299 298 298 297 296 296 295 295 295 295 295 296 296 297 297 298 299 300 301 301 302 303 304 305 306 307 308 308 308 308 308 307 307 306 305 304 303 302 300 299 298 298 297 297 296 295 296 296 297 298 299 299 299 298 296 293 291 288 287 286 286 286 286 287 288 289 290 291 291 291 290 289 288 286
300 300 300 300 300 300 301 301 300 300 300 299 299 298 297 297 296 295 295 295 295 295 295 296 296 297 298 298 299 300 301 302 303 304 304 305 306 307 307 308 308 308 308 307 307 306 305 304 303 302 301 300 299 298 298 297 297 297 297 297 298 299 300 300 299 297 295 292 290 287 286 285 285 285 286 286 287 288 290 290 291 291 291 289 288 286
299 300 300 300 300 300 300 301 300 300 300 299 299 298 297 297 296 295 295 295 295 295 296 296 297 297 298 299 299 300 301 302 303 304 305 306 306 307 307 308 308 308 307 307 307 306 305 304 303 302 301 300 300 299 298 298 298 298 298 299 299 300 300 300 299 297 294 291 289 286 285 284 284 284 285 286 287 288 289 290 291 291 291 290 288 286
299 299 300 300 300 300 301 301 301 300 300 299 299 298 297 296 296 295 295 295 295 296 296 296 297 297 298 299 299 300 301 302 303 304 305 306 307 307 308 308 308 307 307 307 306 306 305 305 304 303 302 301 300 299 299 299 299 299 300 301 301 301 301 301 299 297 294 291 288 286 284 284 284 284 285 285 286 288 289 290 291 291 291 290 288 286
299 299 300 300 301 301 301 301 301 301 300 299 299 298 297 296 296 295 295 295 295 296 296 297 297 297 298 298 299 300 301 302 303 304 305 306 307 308 308 308 308 307 307 306 306 305 305 304 304 303 302 301 301 300 300 300 300 300 301 302 302 302 302 301 299 297 294 291 288 286 284 284 283 284 284 285 286 287 289 290 291 292 292 291 289 287
299 300 300 301 301 301 302 302 301 301 300 300 299 298 297 297 296 296 296 296 296 296 296 297 297 297 298 298 299 300 301 302 304 305 306 307 307 308 308 308 307 307 306 306 305 305 304 304 304 303 302 302 301 300 300 300 301 302 302 303 303 303 302 300 299 297 294 291 288 286 284 284 284 284 284 285 286 287 289 290 291 292 292 292 291 289
299 300 300 301 301 302 302 302 302 301 301 300 299 298 298 297 297 296 296 297 297 297 297 297 297 298 298 299 300 300 301 302 303 305 306 307 307 308 308 308 307 306 306 305 304 304 304 304 303 303 303 302 301 301 301 301 302 303 303 303 303 302 301 300 298 296 293 290 288 286 285 284 284 285 285 286 287 288 289 291 292 293 293 293 292 290
299 300 301 301 302 302 302 302 302 302 301 300 299 299 298 298 297 297 297 297 297 298 298 298 298 298 298 299 300 301 301 302 303 304 305 306 307 307 307 307 307 306 305 304 304 303 304 304 303 303 303 302 302 302 302 302 303 303 304 304 303 302 300 299 297 295 292 290 288 286 285 285 285 285 286 287 288 289 290 292 293 293 293 293 292 291
300 300 301 301 302 302 302 302 302 302 301 301 300 299 299 298 298 298 298 298 298 298 298 299 299 299 299 299 300 301 301 302 303 304 305 306 307 307 307 306 306 305 304 303 303 303 303 303 304 304 303 303 302 302 303 303 304 304 304 304 303 301 300 298 296 294 292 290 288 287 286 286 286 286 287 287 289 290 291 292 293 294 294 293 292 291
300 300 301 302 302 302 302 302 302 302 301 301 300 300 300 299 299 299 299 299 299 299 299 299 299 299 299 300 300 301 301 302 303 304 305 305 306 306 306 306 305 304 303 303 303 303 303 303 304 304 304 304 303 303 304 304 304 304 304 303 302 301 299 297 295 293 291 289 288 287 286 286 286 287 287 288 289 291 292 292 293 293 294 293 293 292
300 301 301 302 302 302 303 303 302 302 302 301 301 301 301 300 300 300 300 300 300 300 300 300 300 300 300 300 300 300 301 302 303 303 304 305 306 306 306 305 304 304 303 303 303 303 303 304 304 304 304 304 304 304 305 305 305 304 304 303 302 300 298 296 294 292 290 288 287 287 287 287 287 287 288 289 290 291 292 292 293 293 293 293 293 292
300 301 301 302 302 302 302 302 302 302 302 302 301 301 301 301 301 301 301 301 301 301 301 301 301 301 300 300 300 300 300 301 302 303 304 305 305 305 305 305 304 303 302 302 303 303 304 304 305 305 305 305 305 305 305 305 305 304 303 302 301 299 297 295 293 291 289 288 287 287 287 287 287 288 289 289 290 291 291 292 293 293 293 293 292 292
300 301 302 302 302 302 302 302 302 302 302 302 302 302 302 302 301 301 301 302 302 302 302 302 302 302 301 301 300 300 300 301 302 303 304 305 305 305 305 304 303 302 302 302 303 304 305 305 305 305 305 306 306 306 306 306 305 304 303 302 300 298 296 294 292 291 289 288 287 287 287 287 288 288 289 289 290 291 291 292 292 292 292 292 292 292
300 301 301 302 302 302 302 302 302 302 302 302 302 302 302 302 302 302 302 302 303 303 303 303 303 303 302 302 301 301 301 302 302 303 305 305 305 305 304 303 303 302 302 303 304 304 305 305 305 305 305 306 306 306 306 305 305 304 302 301 299 298 295 293 292 290 289 287 287 287 287 287 288 288 288 289 290 290 291 291 291 292 292 292 292 292
300 301 301 301 301 302 302 302 302 303 303 303 302 302 302 302 302 302 302 303 303 304 304 304 304 304 303 303 302 302 302 303 304 304 305 305 305 305 304 303 302 302 302 303 304 305 305 305 306 306 306 306 306 306 306 305 304 303 302 300 299 297 295 293 291 289 288 287 287 287 287 287 288 288 288 289 289 290 290 291 291 291 291 291 291 292
Height
5698 5697 5696 5695 5694 5693 5692 5691 5689 5688 5686 5685 5684 5682 5681 5679 5678 5676 5675 5673 5671 5670 5668 5666 5665 5664 5662 5661 5660 5658 5657 5656 5656 5655 5654 5653 5652 5651 5650 5649 5649 5648 5648 5647 5647 5647 5647 5648 5648 5648 5648 5649 5649 5650 5650 5650 5651 5651 5652 5652 5653 5654 5654 5655 5655 5656 5656 5657 5657 5658 5658 5659 5659 5660 5660 5660 5661 5661 5661 5661 5662 5662 5662 5663 5663 5664
5696 5695 5694 5693 5692 5691 5690 5689 5688 5686 5685 5683 5682 5681 5679 5678 5676 5675 5673 5672 5671 5669 5667 5666 5664 5663 5662 5661 5659 5658 5657 5656 5655 5654 5653 5652 5651 5651 5650 5650 5649 5648 5648 5648 5648 5648 5648 5648 5648 5648 5648 5648 5649 5649 5649 5649 5650 5650 5651 5651 5651 5652 5652 5653 5653 5654 5654 5655 5655 5656 5656 5656 5656 5657 5657 5657 5657 5658 5658 5658 5659 5659 5659 5660 5660 5660
5695 5694 5692 5691 5690 5689 5688 5687 5686 5684 5683 5682 5681 5679 5678 5676 5675 5674 5672 5671 5669 5668 5666 5665 5664 5662 5661 5660 5658 5657 5656 5655 5654 5653 5652 5652 5651 5651 5650 5649 5649 5648 5648 5647 5647 5647 5647 5647 5647 5647 5647 5647 5648 5648 5648 5648 5648 5649 5649 5649 5650 5650 5650 5651 5651 5651 5652 5652 5652 5653 5653 5653 5654 5654 5654 5654 5654 5655 5655 5655 5655 5656 5656 5656 5656 5656
5693 5692 5691 5689 5688 5687 5686 5685 5684 5682 5681 5680 5679 5677 5676 5675 5673 5672 5671 5669 5668 5666 5665 5664 5663 5661 5660 5659 5658 5656 5656 5655 5654 5653 5652 5651 5651 5650 5649 5648 5648 5647 5647 5647 5647 5646 5646 5646 5646 5646 5646 5646 5646 5647 5647 5647 5647 5647 5647 5647 5648 5648 5648 5648 5649 5649 5649 5650 5650 5650 5650 5650 5651 5651 5651 5651 5651 5651 5651 5651 5651 5652 5652 5652 5652 5652
5691 5689 5688 5687 5686 5685 5684 5683 5682 5681 5680 5678 5677 5676 5675 5673 5672 5671 5669 5668 5666 5665 5664 5663 5662 5661 5659 5658 5657 5656 5655 5654 5653 5652 5652 5651 5650 5649 5649 5648 5647 5646 5646 5646 5646 5646 5646 5646 5645 5645 5645 5645 5645 5645 5645 5645 5645 5645 5646 5646 5646 5646 5646 5646 5646 5646 5646 5647 5647 5647 5647 5647 5647 5647 5647 5647 5647 5647 5648 5648 5648 5648 5648 5648 5648 5648
5688 5687 5686 5685 5684 5683 5682 5681 5680 5679 5678 5676 5675 5674 5673 5671 5670 5669 5668 5666 5666 5664 5663 5662 5661 5660 5659 5658 5657 5656 5655 5654 5653 5652 5651 5651 5650 5649 5648 5647 5647 5646 5646 5645 5645 5645 5644 5644 5644 5644 5644 5643 5643 5643 5643 5643 5643 5643 5643 5643 5643 5643 5643 5643 5644 5644 5644 5644 5644 5644 5644 5644 5644 5644 5644 5644 5644 5644 5644 5644 5644 5644 5644 5644 5644 5644
5686 5685 5684 5683 5682 5681 5680 5679 5678 5677 5676 5675 5674 5672 5671 5670 5669 5668 5666 5666 5664 5663 5662 5661 5660 5659 5658 5657 5656 5655 5654 5653 5652 5651 5651 5650 5649 5649 5648 5647 5646 5646 5645 5644 5644 5643 5643 5642 5642 5642 5642 5641 5641 5641 5641 5641 5641 5641 5641 5641 5641 5641 5641 5641 5641 5641 5641 5641 5641 5641 5641 5641 5641 5641 5641 5641 5641 5640 5640 5640 5640 5640 5640 5640 5640 5640
5683 5682 5681 5681 5680 5679 5678 5677 5676 5675 5674 5673 5672 5671 5670 5669 5668 5666 5665 5664 5663 5662 5661 5660 5659 5658 5657 5656 5655 5654 5653 5652 5651 5651 5650 5649 5648 5647 5647 5646 5646 5645 5644 5643 5643 5642 5642 5641 5641 5640 5640 5640 5639 5639 5639 5639 5639 5639 5638 5638 5638 5638 5638 5638 5638 5637 5637 5637 5637 5637 5637 5637 5637 5637 5637 5636 5636 5636 5636 5636 5636 5636 5636 5636 5636 5636
5681 5680 5680 5679 5678 5677 5676 5675 5674 5673 5672 5671 5670 5669 5668 5667 5666 5665 5664 5663 5662 5661 5660 5658 5657 5656 5655 5654 5653 5652 5651 5651 5650 5649 5648 5647 5646 5646 5645 5645 5644 5643 5643 5642 5641 5641 5640 5640 5639 5639 5638 5638 5637 5637 5637 5637 5636 5636 5636 5636 5636 5636 5635 5635 5635 5634 5634 5634 5633 5633 5633 5633 5633 5633 5632 5632 5632 5632 5632 5632 5632 5632 5632 5632 5632 5632
5679 5678 5677 5676 5676 5675 5674 5673 5672 5671 5670 5669 5668 5667 5666 5666 5665 5664 5663 5661 5660 5659 5658 5657 5656 5655 5654 5652 5651 5651 5650 5649 5648 5647 5646 5645 5644 5644 5643 5642 5642 5641 5640 5640 5639 5638 5638 5637 5636 5636 5636 5635 5635 5635 5634 5634 5634 5633 5633 5633 5632 5632 5632 5631 5631 5631 5630 5630 5630 5629 5629 5629 5629 5628 5628 5628 5627 5627 5627 5627 5627 5627 5627 5627 5627 5627
5677 5676 5676 5675 5674 5673 5672 5671 5670 5669 5668 5667 5666 5665 5664 5663 5663 5662 5661 5660 5659 5657 5656 5655 5654 5653 5652 5651 5650 5648 5647 5646 5646 5645 5644 5643 5642 5641 5641 5640 5639 5638 5638 5637 5636 5636 5635 5634 5633 5633 5632 5632 5632 5631 5631 5631 5631 5630 5630 5629 5629 5629 5628 5628 5627 5627 5626 5626 5626 5626 5625 5625 5624 5624 5624 5623 5623 5622 5622 5622 5622 5622 5621 5621 5621 5621
5675 5674 5673 5673 5672 5671 5670 5669 5668 5667 5666 5665 5664 5663 5662 5661 5661 5660 5659 5658 5657 5656 5654 5653 5652 5651 5650 5649 5647 5646 5646 5644 5643 5642 5641 5641 5640 5639 5638 5637 5637 5636 5635 5635 5634 5633 5632 5631 5631 5630 5629 5629 5629 5628 5628 5628 5627 5627 5626 5626 5626 5625 5625 5624 5624 5623 5623 5622 5622 5621 5621 5621 5620 5620 5619 5619 5618 5618 5618 5617 5617 5616 5616 5616 5616 5616
5673 5672 5671 5671 5670 5669 5668 5667 5666 5665 5664 5663 5662 5661 5660 5659 5658 5657 5657 5656 5655 5654 5652 5651 5650 5649 5648 5647 5646 5644 5643 5642 5641 5640 5639 5638 5637 5637 5636 5635 5634 5634 5633 5632 5631 5631 5630 5629 5628 5627 5626 5626 5626 5625 5625 5625 5624 5624 5623 5622 5622 5621 5621 5621 5620 5619 5619 5618 5618 5617 5617 5616 5616 5615 5615 5614 5614 5613 5613 5612 5612 5611 5611 5611 5610 5610
5671 5670 5669 5668 5667 5666 5666 5665 5664 5663 5662 5661 5660 5659 5658 5657 5656 5655 5655 5654 5653 5651 5650 5649 5648 5647 5646 5645 5644 5642 5641 5640 5639 5638 5637 5636 5636 5635 5634 5633 5632 5631 5631 5630 5629 5628 5627 5626 5625 5624 5624 5623 5623 5622 5622 5621 5621 5620 5620 5619 5618 5618 5617 5617 5616 5616 5615 5614 5614 5613 5612 5612 5611 5611 5610 5610 5609 5609 5608 5607 5607 5606 5606 5605 5605 5605
5668 5668 5666 5666 5665 5664 5663 5662 5661 5661 5660 5659 5658 5657 5656 5655 5654 5653 5652 5651 5651 5649 5648 5647 5646 5645 5644 5643 5642 5641 5639 5638 5637 5636 5635 5634 5634 5633 5632 5631 5630 5629 5628 5627 5626 5626 5625 5624 5623 5622 5621 5621 5620 5619 5619 5618 5617 5617 5616 5615 5615 5614 5613 5613 5612 5611 5611 5610 5610 5609 5608 5607 5607 5606 5606 5605 5604 5603 5603 5602 5601 5601 5600 5600 5599 5599
5666 5665 5664 5663 5662 5662 5661 5660 5659 5658 5657 5656 5656 5655 5654 5653 5652 5651 5650 5649 5648 5647 5646 5645 5644 5643 5642 5641 5640 5639 5637 5636 5635 5634 5633 5632 5631 5631 5630 5629 5627 5626 5626 5625 5624 5623 5622 5621 5620 5619 5618 5618 5617 5616 5615 5615 5614 5613 5612 5611 5611 5610 5609 5609 5608 5607 5606 5606 5605 5604 5603 5602 5602 5601 5600 5600 5599 5598 5597 5596 5596 5595 5594 5593 5593 5592
5664 5663 5662 5661 5660 5659 5659 5658 5657 5656 5655 5654 5653 5652 5651 5651 5650 5649 5648 5647 5646 5645 5644 5642 5641 5640 5639 5639 5638 5636 5635 5634 5633 5632 5631 5630 5629 5628 5627 5626 5625 5624 5623 5622 5621 5620 5619 5618 5617 5616 5616 5615 5614 5613 5612 5611 5610 5609 5608 5608 5607 5606 5605 5604 5604 5603 5602 5601 5600 5599 5598 5597 5596 5596 5595 5594 5593 5592 5591 5591 5590 5589 5588 5587 5586 5586
5661 5660 5659 5658 5658 5657 5656 5655 5654 5653 5652 5651 5651 5650 5649 5648 5647 5646 5645 5644 5643 5642 5641 5640 5639 5637 5636 5636 5635 5634 5633 5631 5630 5629 5628 5627 5626 5625 5625 5623 5622 5621 5620 5619 5618 5617 5616 5615 5614 5613 5612 5611 5610 5609 5608 5607 5606 5606 5605 5604 5603 5602 5601 5600 5599 5598 5597 5596 5595 5594 5593 5592 5591 5591 5590 5589 5587 5586 5586 5585 5584 5583 5582 5581 5580 5580
5659 5658 5657 5656 5655 5654 5654 5653 5652 5651 5650 5649 5648 5647 5646 5645 5644 5643 5642 5641 5640 5639 5638 5637 5636 5635 5634 5633 5632 5631 5630 5629 5627 5626 5625 5624 5623 5622 5621 5620 5619 5618 5617 5616 5615 5614 5613 5611 5611 5609 5608 5607 5606 5605 5604 5603 5602 5601 5601 5600 5598 5597 5596 5596 5595 5594 5592 5591 5590 5589 5588 5587 5586 5585 5584 5583 5582 5581 5580 5579 5578 5577 5576 5575 5574 5573
5656 5656 5655 5654 5653 5652 5651 5650 5649 5648 5647 5646 5645 5644 5643 5642 5641 5641 5640 5639 5637 5636 5636 5634 5633 5632 5631 5631 5629 5628 5627 5626 5625 5623 5622 5621 5620 5619 5618 5617 5616 5615 5614 5612 5611 5611 5609 5608 5607 5606 5604 5603 5602 5601 5600 5599 5598 5597 5596 5595 5594 5593 5592 5591 5590 5589 5588 5586 5585 5584 5583 5582 5581 5580 5579 5577 5576 5575 5574 5573 5572 5571 5570 5569 5568 5567
5654 5653 5652 5651 5650 5649 5648 5647 5646 5645 5644 5643 5642 5641 5641 5640 5639 5638 5637 5636 5635 5634 5632 5631 5630 5629 5629 5628 5626 5625 5624 5623 5622 5621 5619 5618 5617 5616 5615 5613 5612 5611 5610 5609 5608 5607 5606 5604 5603 5602 5601 5599 5598 5597 5596 5595 5594 5593 5592 5591 5590 5589 5587 5586 5585 5584 5583 5581 5580 5579 5578 5576 5576 5574 5573 5572 5571 5569 5568 5567 5566 5565 5564 5563 5562 5561
5651 5650 5649 5648 5647 5646 5645 5644 5643 5642 5641 5640 5639 5639 5638 5637 5636 5635 5634 5633 5632 5631 5629 5628 5627 5626 5625 5624 5623 5622 5621 5620 5619 5618 5616 5615 5613 5612 5611 5610 5609 5607 5606 5605 5604 5603 5602 5601 5599 5598 5597 5596 5594 5593 5592 5591 5590 5589 5588 5586 5585 5584 5583 5582 5581 5579 5578 5576 5575 5574 5573 5571 5570 5569 5567 5566 5565 5564 5562 5561 5560 5559 5558 5557 5556 5556
5648 5647 5646 5646 5645 5644 5642 5641 5640 5639 5638 5637 5636 5636 5634 5634 5632 5631 5631 5630 5628 5627 5626 5625 5624 5623 5622 5621 5620 5619 5618 5617 5616 5614 5613 5611 5610 5609 5608 5606 5605 5604 5603 5602 5601 5599 5598 5597 5596 5594 5593 5591 5590 5589 5588 5587 5586 5585 5583 5582 5581 5580 5578 5577 5576 5574 5573 5571 5570 5569 5567 5566 5565 5563 5562 5561 5559 5558 5557 5556 5555 5554 5552 5551 5551 5550
5646 5645 5644 5643 5642 5641 5640 5639 5637 5636 5636 5634 5633 5632 5631 5630 5629 5628 5627 5626 5625 5624 5623 5621 5621 5620 5619 5618 5617 5616 5615 5614 5613 5611 5610 5608 5606 5605 5604 5603 5601 5600 5599 5598 5597 5595 5594 5593 5591 5590 5589 5587 5586 5585 5584 5583 5581 5581 5579 5578 5576 5575 5574 5572 5571 5569 5568 5566 5565 5564 5562 5561 5559 5558 5556 5555 5554 5553 5551 5550 5549 5548 5547 5546 5545 5544
5643 5642 5641 5640 5639 5638 5637 5636 5635 5634 5633 5631 5630 5629 5628 5627 5626 5625 5624 5623 5622 5621 5620 5619 5617 5616 5616 5615 5613 5612 5611 5611 5609 5608 5606 5605 5603 5601 5600 5599 5598 5596 5595 5594 5593 5591 5590 5589 5587 5586 5584 5583 5581 5581 5579 5578 5577 5576 5575 5573 5572 5570 5569 5567 5566 5564 5563 5561 5560 5558 5557 5555 5554 5552 5551 5550 5549 5547 5546 5545 5544 5543 5542 5541 5540 5539
5640 5639 5638 5637 5636 5635 5634 5633 5632 5631 5630 5629 5627 5626 5625 5624 5623 5622 5621 5620 5619 5618 5616 5615 5614 5613 5612 5611 5610 5609 5608 5607 5606 5604 5602 5601 5599 5598 5596 5595 5594 5592 5591 5590 5588 5587 5586 5585 5583 5582 5580 5578 5577 5576 5575 5574 5572 5571 5570 5569 5567 5566 5564 5562 5561 5559 5558 5556 5555 5553 5551 5550 5548 5547 5546 5545 5543 5542 5541 5540 5539 5538 5536 5536 5534 5533
5637 5636 5635 5634 5633 5632 5631 5630 5629 5628 5627 5626 5625 5624 5622 5621 5620 5619 5618 5617 5616 5615 5613 5612 5611 5609 5608 5607 5606 5605 5604 5603 5601 5600 5599 5597 5595 5593 5592 5591 5590 5588 5586 5585 5584 5583 5582 5580 5579 5577 5576 5574 5573 5571 5570 5569 5568 5566 5565 5564 5562 5561 5559 5558 5556 5554 5553 5551 5549 5548 5546 5545 5543 5542 5541 5539 5538 5537 5536 5535 5533 5532 5531 5530 5529 5528
5634 5633 5632 5631 5630 5629 5628 5627 5626 5625 5624 5623 5622 5621 5620 5618 5617 5616 5615 5614 5613 5611 5610 5609 5607 5606 5605 5603 5602 5601 5601 5599 5598 5596 5595 5593 5591 5590 5589 5587 5586 5584 5583 5581 5580 5579 5578 5576 5575 5573 5571 5570 5568 5567 5566 5564 5563 5562 5561 5559 5558 5556 5554 5553 5551 5549 5548 5546 5544 5543 5541 5540 5538 5536 5535 5534 5533 5531 5531 5529 5528 5527 5526 5525 5524 5522
5632 5631 5630 5628 5627 5626 5625 5624 5623 5622 5621 5620 5619 5618 5617 5616 5614 5613 5612 5611 5609 5608 5607 5606 5604 5603 5601 5600 5599 5598 5597 5596 5595 5593 5591 5589 5588 5586 5585 5583 5581 5580 5579 5577 5575 5574 5573 5572 5571 5569 5567 5566 5564 5563 5561 5560 5558 5557 5556 5554 5553 5551 5550 5548 5546 5545 5543 5541 5539 5538 5536 5535 5533 5531 5530 5529 5528 5526 5525 5524 5523 5522 5521 5520 5518 5517
5629 5628 5627 5626 5625 5623 5622 5621 5620 5619 5618 5617 5616 5615 5613 5612 5611 5610 5608 5607 5606 5605 5603 5602 5601 5600 5598 5597 5596 5594 5593 5593 5591 5589 5587 5586 5584 5583 5581 5580 5578 5576 5575 5573 5571 5569 5568 5568 5567 5565 5563 5561 5560 5558 5557 5555 5554 5552 5551 5549 5548 5546 5545 5543 5541 5540 5538 5536 5534 5533 5531 5530 5528 5527 5526 5524 5523 5521 5520 5519 5518 5517 5516 5514 5513 5512
5626 5626 5624 5623 5622 5621 5619 5618 5617 5616 5615 5613 5612 5611 5610 5609 5607 5606 5605 5604 5603 5601 5600 5599 5598 5596 5595 5593 5592 5591 5589 5589 5587 5586 5584 5582 5581 5579 5578 5576 5574 5572 5571 5569 5567 5564 5563 5562 5562 5561 5559 5557 5555 5554 5552 5551 5549 5547 5546 5544 5543 5541 5540 5538 5536 5535 5533 5531 5530 5528 5526 5525 5523 5522 5521 5519 5518 5517 5515 5514 5513 5512 5511 5509 5508 5507
5624 5623 5621 5620 5619 5617 5616 5615 5614 5612 5611 5610 5609 5608 5606 5605 5604 5603 5601 5600 5599 5598 5597 5596 5594 5593 5591 5590 5589 5587 5586 5585 5584 5582 5580 5579 5577 5575 5574 5572 5570 5568 5566 5565 5563 5561 5559 5556 5556 5556 5555 5553 5551 5549 5548 5546 5545 5543 5541 5540 5538 5536 5535 5533 5531 5529 5528 5526 5525 5523 5521 5520 5519 5517 5516 5515 5513 5512 5511 5509 5508 5507 5506 5504 5503 5502
5621 5620 5619 5617 5616 5615 5613 5612 5611 5609 5608 5606 5605 5604 5603 5602 5601 5599 5598 5596 5595 5594 5593 5592 5591 5589 5588 5586 5585 5584 5583 5581 5580 5578 5576 5575 5573 5571 5570 5568 5566 5564 5562 5561 5559 5557 5555 5552 5551 5550 5549 5548 5547 5545 5543 5542 5540 5538 5536 5535 5533 5531 5530 5528 5526 5524 5522 5521 5519 5518 5517 5516 5514 5513 5511 5510 5509 5507 5506 5505 5503 5502 5501 5499 5498 5497
5618 5617 5616 5614 5613 5611 5610 5609 5607 5606 5605 5603 5602 5601 5600 5598 5597 5596 5594 5593 5592 5591 5589 5588 5587 5586 5584 5582 5581 5580 5579 5578 5576 5574 5572 5571 5569 5567 5565 5564 5562 5560 5558 5556 5555 5553 5551 5549 5547 5545 5543 5542 5541 5541 5539 5537 5536 5534 5532 5530 5528 5526 5525 5523 5521 5519 5517 5516 5514 5513 5512 5511 5509 5508 5507 5505 5504 5502 5501 5500 5498 5497 5496 5495 5493 5492
5615 5614 5612 5611 5610 5608 5607 5606 5604 5603 5601 5600 5599 5597 5596 5595 5593 5592 5591 5589 5588 5587 5585 5584 5583 5581 5580 5579 5577 5576 5575 5573 5572 5571 5569 5567 5565 5563 5561 5559 5558 5556 5554 5552 5550 5549 5546 5544 5542 5541 5538 5536 5535 5535 5534 5533 5531 5529 5527 5526 5524 5522 5520 5518 5516 5514 5512 5511 5509 5508 5507 5506 5505 5503 5502 5501 5499 5498 5496 5495 5494 5492 5491 5490 5489 5488
5612 5611 5609 5608 5606 5605 5604 5602 5601 5600 5598 5596 5595 5594 5592 5591 5590 5589 5587 5586 5584 5583 5581 5580 5579 5577 5576 5575 5573 5572 5570 5569 5568 5566 5565 5563 5561 5559 5557 5555 5553 5552 5550 5547 5546 5544 5542 5540 5538 5536 5534 5532 5530 5528 5528 5527 5526 5524 5522 5521 5519 5517 5515 5513 5511 5510 5507 5506 5504 5503 5502 5501 5500 5498 5497 5496 5495 5493 5492 5490 5489 5487 5486 5485 5484 5483
5608 5607 5606 5605 5603 5601 5600 5599 5597 5596 5595 5593 5592 5590 5589 5588 5586 5585 5583 5582 5581 5579 5578 5576 5575 5574 5572 5571 5569 5568 5566 5564 5563 5562 5561 5559 5557 5555 5553 5551 5549 5547 5546 5543 5541 5539 5538 5535 5533 5531 5529 5527 5525 5523 5521 5520 5520 5519 5517 5516 5514 5512 5511 5509 5507 5505 5503 5501 5500 5498 5497 5496 5495 5494 5493 5491 5490 5489 5487 5486 5484 5483 5482 5481 5479 5478
5605 5604 5602 5601 5600 5598 5596 5595 5594 5592 5591 5590 5588 5587 5585 5584 5582 5581 5580 5578 5577 5576 5574 5572 5571 5570 5568 5567 5565 5564 5562 5560 5559 5557 5556 5554 5552 5551 5548 5546 5544 5542 5541 5539 5537 5535 5533 5531 5529 5526 5524 5522 5521 5519 5517 5515 5513 5512 5511 5510 5509 5507 5506 5504 5502 5500 5498 5496 5495 5493 5492 5491 5490 5489 5488 5487 5486 5484 5482 5481 5480 5478 5477 5476 5475 5474
5601 5600 5599 5597 5596 5594 5593 5591 5590 5589 5587 5586 5585 5583 5581 5580 5579 5577 5576 5574 5573 5571 5570 5569 5567 5566 5564 5562 5561 5560 5558 5556 5554 5553 5551 5549 5547 5546 5544 5542 5540 5538 5536 5534 5532 5531 5529 5526 5524 5522 5520 5517 5515 5513 5512 5510 5508 5506 5505 5503 5502 5501 5500 5498 5496 5494 5493 5491 5490 5488 5487 5486 5486 5484 5483 5482 5481 5479 5478 5476 5475 5474 5473 5471 5470 5469
5598 5596 5595 5594 5592 5591 5589 5588 5586 5585 5584 5582 5581 5579 5578 5576 5575 5573 5572 5571 5569 5568 5566 5565 5563 5561 5560 5559 5557 5555 5554 5552 5550 5548 5546 5545 5543 5541 5539 5537 5535 5533 5531 5529 5527 5526 5524 5522 5520 5518 5516 5513 5511 5508 5506 5505 5503 5501 5500 5498 5496 5495 5493 5492 5490 5489 5487 5486 5485 5483 5482 5481 5481 5480 5478 5477 5476 5475 5473 5472 5470 5469 5468 5467 5466 5464
5594 5593 5591 5590 5588 5587 5585 5584 5582 5581 5580 5578 5577 5576 5574 5573 5571 5570 5568 5567 5565 5564 5562 5561 5559 5557 5556 5554 5553 5551 5550 5548 5546 5544 5542 5540 5538 5536 5534 5532 5530 5528 5526 5524 5522 5521 5519 5517 5515 5513 5511 5509 5506 5504 5501 5499 5497 5496 5495 5492 5491 5488 5486 5485 5484 5482 5481 5480 5479 5478 5477 5476 5476 5475 5473 5472 5471 5470 5468 5467 5466 5464 5463 5462 5461 5460
5591 5589 5587 5586 5585 5583 5582 5580 5579 5577 5576 5575 5573 5572 5571 5569 5567 5566 5564 5563 5561 5560 5558 5556 5555 5553 5551 5550 5549 5547 5546 5544 5542 5540 5538 5536 5534 5532 5530 5527 5526 5523 5521 5519 5517 5516 5514 5512 5510 5508 5506 5504 5501 5499 5496 5494 5492 5491 5489 5487 5485 5482 5480 5478 5477 5476 5475 5474 5473 5473 5472 5471 5471 5470 5468 5467 5466 5465 5463 5462 5461 5459 5458 5457 5456 5455
5587 5585 5584 5582 5581 5580 5578 5577 5575 5574 5572 5571 5570 5568 5566 5565 5563 5562 5560 5559 5557 5556 5554 5552 5551 5549 5547 5546 5544 5543 5541 5540 5538 5536 5534 5532 5530 5527 5525 5523 5521 5519 5517 5515 5512 5510 5508 5507 5505 5503 5501 5499 5497 5494 5492 5489 5487 5486 5484 5482 5480 5477 5474 5472 5471 5470 5469 5468 5467 5467 5467 5466 5465 5464 5463 5462 5461 5459 5458 5457 5456 5454 5453 5451 5450 5449
5583 5581 5580 5579 5577 5576 5575 5573 5572 5570 5569 5567 5566 5564 5563 5561 5560 5558 5556 5555 5553 5551 5550 5548 5546 5545 5543 5541 5540 5538 5536 5535 5533 5532 5530 5528 5526 5523 5521 5518 5516 5514 5512 5510 5508 5506 5503 5501 5500 5498 5496 5494 5491 5490 5487 5485 5483 5481 5478 5476 5474 5472 5469 5467 5465 5464 5463 5462 5462 5462 5461 5461 5460 5459 5458 5456 5456 5454 5453 5451 5450 5449 5447 5446 5445 5444
5579 5578 5576 5575 5574 5572 5571 5570 5568 5566 5565 5564 5562 5561 5559 5557 5556 5554 5552 5551 5549 5547 5545 5544 5542 5540 5538 5536 5535 5533 5531 5530 5528 5527 5525 5523 5521 5519 5516 5514 5511 5509 5507 5505 5503 5501 5499 5497 5494 5492 5490 5488 5486 5485 5482 5480 5478 5476 5473 5471 5469 5467 5464 5462 5460 5458 5457 5456 5456 5456 5456 5456 5455 5454 5453 5451 5451 5449 5448 5446 5445 5443 5442 5441 5440 5439
5576 5574 5573 5571 5570 5569 5567 5566 5564 5563 5561 5560 5558 5557 5555 5553 5551 5550 5548 5546 5545 5543 5541 5539 5538 5536 5533 5532 5530 5529 5526 5525 5523 5521 5520 5518 5516 5514 5512 5510 5507 5505 5502 5500 5498 5496 5494 5492 5490 5487 5485 5483 5481 5480 5478 5476 5473 5471 5468 5466 5464 5461 5459 5457 5455 5454 5452 5451 5451 5451 5451 5450 5450 5449 5448 5447 5446 5444 5443 5441 5440 5438 5437 5436 5435 5433
5572 5571 5569 5568 5566 5565 5563 5562 5561 5559 5557 5556 5554 5553 5551 5549 5547 5546 5544 5542 5541 5539 5536 5535 5533 5531 5529 5527 5526 5524 5522 5520 5518 5516 5515 5513 5511 5510 5507 5505 5503 5501 5498 5496 5493 5491 5489 5486 5484 5482 5481 5478 5476 5474 5472 5471 5468 5466 5463 5461 5458 5456 5454 5452 5450 5449 5448 5447 5446 5446 5445 5445 5445 5444 5443 5443 5441 5440 5438 5437 5435 5434 5432 5431 5430 5429
5568 5567 5565 5564 5562 5561 5560 5558 5557 5555 5554 5552 5550 5549 5547 5546 5544 5542 5540 5538 5536 5535 5533 5531 5529 5527 5525 5523 5521 5519 5517 5515 5513 5511 5510 5508 5506 5504 5503 5501 5498 5496 5494 5491 5489 5486 5484 5481 5479 5477 5476 5473 5471 5469 5467 5465 5463 5461 5458 5456 5453 5451 5449 5447 5445 5444 5443 5442 5441 5441 5441 5440 5440 5439 5439 5438 5437 5436 5434 5432 5431 5430 5428 5427 5426 5424
5565 5563 5562 5560 5559 5557 5556 5554 5553 5551 5550 5548 5546 5545 5543 5541 5540 5538 5536 5534 5532 5531 5529 5526 5524 5522 5520 5518 5516 5515 5513 5511 5508 5506 5505 5503 5501 5499 5497 5496 5494 5492 5490 5487 5485 5482 5479 5476 5474 5472 5471 5468 5466 5464 5462 5460 5458 5455 5453 5451 5448 5446 5444 5442 5440 5439 5438 5437 5437 5436 5436 5436 5435 5435 5434 5434 5433 5432 5431 5429 5427 5425 5424 5423 5421 5420
5561 5560 5558 5556 5555 5553 5552 5551 5549 5547 5546 5544 5543 5541 5539 5537 5536 5534 5532 5530 5528 5526 5524 5522 5520 5517 5515 5513 5511 5510 5507 5506 5503 5501 5500 5498 5496 5494 5492 5491 5489 5487 5485 5483 5481 5479 5476 5473 5470 5467 5466 5464 5462 5460 5457 5455 5452 5450 5448 5445 5443 5441 5439 5437 5436 5434 5434 5433 5432 5432 5431 5431 5431 5430 5430 5429 5429 5428 5427 5425 5423 5421 5420 5418 5417 5416
5557 5556 5554 5553 5551 5550 5548 5546 5545 5543 5542 5540 5538 5537 5535 5533 5531 5529 5528 5526 5524 5522 5520 5518 5516 5513 5511 5508 5506 5504 5502 5501 5498 5496 5495 5493 5491 5489 5487 5486 5484 5483 5481 5479 5476 5474 5472 5469 5466 5462 5460 5459 5458 5456 5452 5450 5447 5445 5443 5441 5438 5436 5435 5433 5431 5430 5430 5429 5428 5427 5427 5426 5426 5426 5426 5425 5425 5424 5423 5422 5420 5418 5416 5415 5413 5412